[[{"header":{"parameterUnit":"m.s-1","parameterCategory":2,"la1":30.2991,"la2":30.254,"lo1":-89.0895,"lo2":-89.0444,"dy":0.0017,"dx":0.0017,"nx":28,"ny":28,"refTime":"2025-09-08T03:00:00:Z","depth":"0","parameterNumber":2,"parameterNumberName":"U-component_of_CURRENTS"},"data":[0,0,0,0,0,0,0,0,0,0,0,0,0,0,0,0,0,0,0,0,0,0,0,0,0,0,0,0,0,0,0,0,0,0,0,0,0,0,0,0,0,0,0,0,0,0,0,0,0,0,0,0,0,0,0,0,0,0,0.1969,0.1969,0,0.1989,0.1989,0.1989,0.2002,0.2002,0.2002,0.2003,0.2007,0.2007,0.2007,0,0,0,0,0,0,0,0,0,0,0,0,0,0.1948,0.1948,0.1969,0.1969,0.197,0.1989,0.1989,0.1989,0.2002,0.2002,0.2003,0.2003,0.2007,0.2007,0.2007,0,0,0,0,0,0,0,0,0,0,0,0,0,0.1959,0.1948,0.1969,0.198,0.1981,0.1989,0.1989,0.1989,0.2002,0.2002,0.2003,0.2003,0.2007,0.2007,0.2007,0.1998,0,0,0.2006,0.2006,0,0,0,0,0,0,0,0,0.1959,0.196,0.1978,0.1979,0.1981,0.1995,0.1983,0.1992,0.2002,0.1992,0.2003,0.2003,0.2002,0.2003,0.2003,0.1998,0.1998,0.2006,0.2006,0.2006,0.2006,0,0,0,0,0,0,0,0.1958,0.1959,0.1975,0.1978,0.198,0.1986,0.1988,0.1985,0.1993,0.1993,0.1994,0.1999,0.2003,0.2003,0.2003,0.1998,0.2006,0.2006,0.2006,0.2006,0.204,0.204,0,0,0,0,0,0,0.1958,0.1958,0.1974,0.1976,0.1972,0.1986,0.1988,0.1988,0.1994,0.1995,0.1999,0.2,0.2003,0.2004,0.2004,0.2034,0.2006,0.2006,0.2006,0.2039,0.204,0.2041,0,0,0,0,0,0,0.1958,0.1959,0.1974,0.1969,0.1972,0.1986,0.1986,0.1989,0.1993,0.1999,0.2,0.2002,0.2004,0.2004,0.2013,0.2033,0.2006,0.2005,0.2037,0.2039,0.204,0.2069,0,0,0,0,0,0,0.1957,0.1959,0.1959,0.1969,0.1972,0.1984,0.1986,0.1989,0.1996,0.1997,0.2001,0.2002,0.2004,0.2014,0.2013,0.2032,0.2005,0.2036,0.2038,0.204,0.2066,0.2071,0.2075,0,0,0,0,0,0.1956,0.1957,0.1959,0.1961,0.1972,0.1985,0.1986,0.1997,0.1996,0.2001,0.2008,0.2002,0.2026,0.2014,0.2013,0.2032,0.2035,0.2037,0.204,0.2065,0.207,0.2075,0,0,0,0,0,0,0.1953,0.1959,0.1961,0.1965,0.1977,0.1988,0.1993,0.1996,0.2004,0.2005,0.2007,0.2009,0.203,0.2024,0.2011,0.205,0.2032,0.2035,0.2052,0.2057,0.2061,0.2068,0.2005,0,0,0,0,0,0.195,0.1951,0.1962,0.1966,0.1971,0.198,0.1986,0.1993,0.2002,0.2005,0.201,0.2019,0.2037,0.2041,0.2052,0.2061,0.2067,0.2076,0.2081,0.2084,0.2091,0.2123,0.213,0.2048,0.2048,0.2048,0,0,0.1951,0.1955,0.1956,0.1965,0.1973,0.1988,0.1984,0.1995,0.2011,0.2004,0.2023,0.2032,0.2044,0.2067,0.2075,0.2064,0.2109,0.2087,0.209,0.2094,0.2126,0.2134,0.2141,0.205,0.2049,0.2049,0,0,0.1958,0.1955,0.1961,0.1971,0.1984,0.1992,0.1995,0.2008,0.2016,0.2032,0.2043,0.2063,0.2073,0.2096,0.2107,0.2137,0.2134,0.214,0.2162,0.2193,0.22,0.2206,0.2216,0.2223,0.2138,0.2139,0.2139,0,0.1963,0.1967,0.1966,0.198,0.1991,0.1995,0.2012,0.2022,0.2038,0.205,0.2043,0.2087,0.2093,0.2136,0.2151,0.2148,0.2156,0.214,0.2198,0.2204,0.221,0.2219,0.2227,0.214,0.214,0.214,0.214,0,0.1976,0.1983,0.1989,0.2006,0.2018,0.2031,0.2048,0.2061,0.2068,0.2081,0.2117,0.213,0.2157,0.2166,0.2167,0.2217,0.2206,0.2202,0.2184,0.222,0.2227,0.2234,0.2142,0.2142,0.2141,0.2141,0,0,0.1972,0.1995,0.1995,0.2007,0.2032,0.2041,0.2072,0.21,0.2126,0.2138,0.2176,0.2205,0.2208,0.2221,0.2229,0.2255,0.23,0.2246,0.2246,0.2253,0.2357,0.2327,0.2332,0.2307,0.2308,0.2309,0.2342,0,0.1983,0.2008,0.202,0.2045,0.2057,0.2078,0.2108,0.2135,0.2159,0.2196,0.2214,0.225,0.223,0.2249,0.2272,0.23,0.2321,0.2291,0.2323,0.2324,0.2292,0.234,0.2284,0.2307,0.2349,0.235,0.2351,0,0.1981,0.2,0.2027,0.2061,0.207,0.209,0.2136,0.2166,0.2221,0.2245,0.2279,0.2294,0.2335,0.2315,0.2364,0.2345,0.2354,0.2367,0.2368,0.2337,0.2309,0.228,0.2318,0.2292,0.2362,0.2361,0.236,0,0.1958,0.1996,0.2016,0.2028,0.2075,0.2094,0.2121,0.2176,0.2214,0.2279,0.2313,0.2353,0.2382,0.2402,0.2411,0.2396,0.2464,0.2445,0.2424,0.2421,0.2378,0.2368,0.2393,0.2486,0.2486,0.2486,0.2486,0,0.1952,0.196,0.2005,0.2015,0.2045,0.2081,0.2125,0.2168,0.2242,0.2286,0.233,0.2373,0.2408,0.244,0.2439,0.2452,0.2482,0.2441,0.2437,0.2384,0.2376,0.2354,0.2335,0.2487,0.2487,0.2487,0.2487,0,0.1908,0.1941,0.1961,0.2014,0.2031,0.2049,0.212,0.2154,0.2231,0.2296,0.2318,0.2403,0.2443,0.2464,0.251,0.2488,0.2445,0.25,0.2425,0.2412,0.2352,0.2336,0.2253,0.217,0.2481,0.2481,0.2481,0,0.1878,0.1889,0.1946,0.1962,0.1982,0.202,0.2047,0.2135,0.2182,0.2301,0.233,0.2406,0.2442,0.2498,0.2497,0.25,0.2429,0.2437,0.2399,0.2355,0.2335,0.2234,0.2163,0.2349,0.2348,0.2347,0.2346,0,0.1824,0.185,0.1875,0.1913,0.194,0.1973,0.2024,0.2068,0.2168,0.222,0.2299,0.2345,0.2428,0.2424,0.2447,0.2437,0.2335,0.2412,0.2397,0.2264,0.2126,0.2042,0.2309,0.2336,0.2337,0.2337,0.2338,0.2338,0.1772,0.1778,0.1819,0.1847,0.188,0.1907,0.1905,0.1974,0.2027,0.2091,0.2202,0.224,0.2339,0.2374,0.2352,0.2314,0.2267,0.2259,0.2253,0.216,0.2053,0.2288,0.2292,0.2292,0.2293,0.2293,0.2294,0,0.1692,0.1719,0.1746,0.1774,0.1774,0.182,0.1867,0.1852,0.1864,0.1974,0.202,0.2116,0.2158,0.2222,0.2252,0.2183,0.2063,0.2126,0.199,0.1931,0.2186,0.2156,0.2094,0.2094,0.2094,0.2094,0.2094,0.2094,0.1653,0.1649,0.1672,0.1652,0.1668,0.163,0.1631,0.1635,0.1694,0.1736,0.1792,0.1879,0.2075,0.2203,0.2181,0.2114,0.1948,0.1872,0.1831,0.2061,0.2073,0.2085,0.2054,0.1971,0.1971,0.1499,0.1496,0.1493]},{"header":{"parameterUnit":"m.s-1","parameterCategory":2,"la1":30.2991,"la2":30.254,"lo1":-89.0895,"lo2":-89.0444,"dy":0.0017,"dx":0.0017,"nx":28,"ny":28,"refTime":"2025-09-08T03:00:00:Z","depth":"0","parameterNumber":3,"parameterNumberName":"V-component_of_CURRENTS"},"data":[0,0,0,0,0,0,0,0,0,0,0,0,0,0,0,0,0,0,0,0,0,0,0,0,0,0,0,0,0,0,0,0,0,0,0,0,0,0,0,0,0,0,0,0,0,0,0,0,0,0,0,0,0,0,0,0,0,0,-0.0124,-0.0125,0,-0.0177,-0.0178,-0.0179,-0.0229,-0.023,-0.0231,-0.0231,-0.0303,-0.0305,-0.0306,0,0,0,0,0,0,0,0,0,0,0,0,0,-0.011,-0.011,-0.0124,-0.0125,-0.0125,-0.0177,-0.0178,-0.0179,-0.0229,-0.023,-0.0231,-0.0231,-0.0303,-0.0305,-0.0306,0,0,0,0,0,0,0,0,0,0,0,0,0,-0.0136,-0.011,-0.0124,-0.0156,-0.016,-0.0177,-0.0178,-0.0179,-0.0229,-0.023,-0.0231,-0.0232,-0.0302,-0.0305,-0.0307,-0.0302,0,0,-0.0313,-0.0314,0,0,0,0,0,0,0,0,-0.0134,-0.0136,-0.0151,-0.0154,-0.0158,-0.0197,-0.02,-0.0221,-0.0229,-0.0204,-0.0231,-0.0232,-0.0268,-0.0273,-0.0282,-0.0306,-0.0309,-0.0313,-0.0314,-0.0315,-0.0316,0,0,0,0,0,0,0,-0.0132,-0.0134,-0.0146,-0.0152,-0.0156,-0.0183,-0.0187,-0.0204,-0.0232,-0.0206,-0.021,-0.0214,-0.0271,-0.028,-0.0285,-0.031,-0.0313,-0.0315,-0.0316,-0.0317,-0.0353,-0.0352,0,0,0,0,0,0,-0.0121,-0.0132,-0.0144,-0.0148,-0.0147,-0.0182,-0.0187,-0.0184,-0.0231,-0.0239,-0.0213,-0.0216,-0.0276,-0.0282,-0.0287,-0.0289,-0.0315,-0.0317,-0.0318,-0.0353,-0.0352,-0.0352,0,0,0,0,0,0,-0.012,-0.0121,-0.0142,-0.0141,-0.0146,-0.0181,-0.0178,-0.0185,-0.0194,-0.0236,-0.0245,-0.0215,-0.0277,-0.0284,-0.0302,-0.0292,-0.0318,-0.032,-0.0353,-0.0353,-0.0352,-0.029,0,0,0,0,0,0,-0.0119,-0.012,-0.0114,-0.014,-0.0145,-0.0147,-0.0177,-0.0185,-0.0195,-0.02,-0.0241,-0.0249,-0.0278,-0.0298,-0.0304,-0.0295,-0.0322,-0.0354,-0.0353,-0.0352,-0.0292,-0.0287,-0.0283,0,0,0,0,0,-0.0118,-0.0107,-0.0113,-0.0115,-0.0135,-0.0146,-0.0151,-0.0181,-0.0194,-0.0193,-0.0223,-0.0247,-0.0299,-0.0299,-0.0306,-0.0298,-0.0354,-0.0353,-0.0352,-0.0294,-0.0288,-0.0283,0,0,0,0,0,0,-0.0102,-0.0111,-0.0119,-0.0112,-0.0125,-0.0155,-0.0158,-0.0173,-0.0195,-0.0201,-0.0241,-0.025,-0.0264,-0.0287,-0.0287,-0.0308,-0.0331,-0.0331,-0.0285,-0.0279,-0.0275,-0.0258,-0.0324,0,0,0,0,0,-0.0092,-0.0085,-0.0101,-0.0096,-0.0099,-0.0125,-0.0133,-0.0149,-0.0172,-0.0183,-0.021,-0.0241,-0.0265,-0.0277,-0.0302,-0.0307,-0.0328,-0.0308,-0.0304,-0.0299,-0.0291,-0.0313,-0.031,-0.035,-0.035,-0.035,0,0,-0.0087,-0.009,-0.0087,-0.0092,-0.0105,-0.0102,-0.0132,-0.0138,-0.0137,-0.0186,-0.0194,-0.0224,-0.0263,-0.0275,-0.0283,-0.0293,-0.0298,-0.0298,-0.0294,-0.0289,-0.0312,-0.0308,-0.0305,-0.0349,-0.0349,-0.0349,0,0,-0.0069,-0.0071,-0.0058,-0.0062,-0.0072,-0.0085,-0.0082,-0.0103,-0.0114,-0.0123,-0.016,-0.018,-0.0216,-0.0239,-0.0257,-0.0239,-0.0273,-0.0251,-0.0212,-0.0234,-0.023,-0.0228,-0.0243,-0.0242,-0.0247,-0.0247,-0.0247,0,-0.0064,-0.0046,-0.0058,-0.0047,-0.0046,-0.0071,-0.0059,-0.007,-0.0095,-0.0098,-0.0119,-0.0165,-0.0198,-0.021,-0.0209,-0.0227,-0.0245,-0.0229,-0.0226,-0.0224,-0.0223,-0.0239,-0.0239,-0.0244,-0.0244,-0.0245,-0.0245,0,-0.0036,-0.0023,-0.0016,-0.0007,-0.0007,-0.0001,-0.0013,-0.0014,-0.003,-0.0045,-0.006,-0.0104,-0.0131,-0.0146,-0.0174,-0.0176,-0.0194,-0.0218,-0.0237,-0.0214,-0.0234,-0.0235,-0.0239,-0.0241,-0.0241,-0.0242,0,0,-0.0018,-0.0,0.0003,0.0018,0.0017,0.0022,0.003,0.0031,0.0042,0.0011,0.0018,-0.0027,-0.0051,-0.0072,-0.0108,-0.0127,-0.0132,-0.0163,-0.0165,-0.0171,-0.0175,-0.0186,-0.0188,-0.0157,-0.0157,-0.0157,-0.0191,0,0.0007,0.004,0.0041,0.0072,0.009,0.0078,0.0088,0.0085,0.0077,0.0077,0.0036,0.0022,-0.0023,-0.0035,-0.0059,-0.0114,-0.0133,-0.0121,-0.0202,-0.0204,-0.0211,-0.0189,-0.0186,-0.0215,-0.0192,-0.0192,-0.0193,0,0.004,0.0059,0.0093,0.012,0.0126,0.0138,0.0159,0.0166,0.0159,0.0152,0.0134,0.0097,0.0068,0.0023,-0.0048,-0.0039,-0.0099,-0.0144,-0.0147,-0.0178,-0.0217,-0.0236,-0.0218,-0.033,-0.0195,-0.0194,-0.0194,0,0.0069,0.01,0.0129,0.0138,0.0159,0.0172,0.0183,0.0187,0.021,0.0201,0.021,0.0163,0.0147,0.0068,-0.0025,-0.0038,-0.0106,-0.0139,-0.0204,-0.0205,-0.0228,-0.0232,-0.0322,-0.019,-0.019,-0.019,-0.019,0,0.0103,0.0132,0.0145,0.0165,0.0206,0.0205,0.0248,0.0253,0.0271,0.0308,0.0251,0.027,0.0157,0.0102,0.0003,-0.0094,-0.0085,-0.0188,-0.0212,-0.0206,-0.0207,-0.0328,-0.04,-0.0191,-0.0191,-0.0191,-0.0191,0,0.0139,0.0145,0.0186,0.0211,0.0223,0.0253,0.03,0.0334,0.0338,0.0386,0.0385,0.0356,0.0286,0.0166,0.0046,-0.0045,-0.0219,-0.0191,-0.0172,-0.0193,-0.0357,-0.0426,-0.0546,-0.061,-0.0262,-0.0263,-0.0263,0,0.0164,0.0184,0.0223,0.0252,0.0267,0.031,0.0345,0.0368,0.0418,0.0447,0.0482,0.0427,0.0414,0.0237,0.0057,-0.0114,-0.0235,-0.0225,-0.0252,-0.0357,-0.0452,-0.0502,-0.055,-0.0259,-0.026,-0.026,-0.026,0,0.0212,0.0217,0.025,0.0308,0.035,0.0404,0.0461,0.0513,0.0547,0.0589,0.0643,0.0631,0.046,0.0306,0.0063,-0.0067,-0.0313,-0.0235,-0.0353,-0.046,-0.0511,-0.0586,-0.0245,-0.0262,-0.0262,-0.0262,-0.0262,-0.0262,0.0249,0.0276,0.0313,0.0372,0.0423,0.0498,0.0556,0.0625,0.0711,0.0782,0.0769,0.0773,0.0531,0.0209,0.0014,-0.0331,-0.0342,-0.0428,-0.0503,-0.0541,-0.0607,-0.0264,-0.0304,-0.0304,-0.0304,-0.0304,-0.0304,0,0.0299,0.0326,0.0379,0.0449,0.0514,0.0532,0.0636,0.07,0.0808,0.0866,0.0907,0.0797,0.0494,0.0167,-0.0287,-0.0535,-0.0643,-0.0683,-0.0759,-0.0797,-0.0496,-0.0499,-0.0572,-0.0572,-0.0571,-0.0571,-0.0571,-0.0571,0.0327,0.0384,0.0407,0.0517,0.0568,0.0662,0.0725,0.0818,0.0887,0.0955,0.096,0.0935,0.0692,-0.0095,-0.0649,-0.0788,-0.0989,-0.1031,-0.1132,-0.0932,-0.0914,-0.0897,-0.0916,-0.1076,-0.1076,-0.1395,-0.1399,-0.1401]}],[{"header":{"parameterUnit":"m.s-1","parameterCategory":2,"la1":30.2991,"la2":30.254,"lo1":-89.0895,"lo2":-89.0444,"dy":0.0017,"dx":0.0017,"nx":28,"ny":28,"refTime":"2025-09-08T03:00:00:Z","depth":"2","parameterNumber":2,"parameterNumberName":"U-component_of_CURRENTS"},"data":[0,0,0,0,0,0,0,0,0,0,0,0,0,0,0,0,0,0,0,0,0,0,0,0,0,0,0,0,0,0,0,0,0,0,0,0,0,0,0,0,0,0,0,0,0,0,0,0,0,0,0,0,0,0,0,0,0,0,0.1904,0.1905,0,0.1923,0.1923,0.1923,0.1943,0.1943,0.1944,0.1944,0.1956,0.1956,0.1955,0,0,0,0,0,0,0,0,0,0,0,0,0,0.1885,0.1885,0.1904,0.1905,0.1905,0.1923,0.1923,0.1923,0.1943,0.1943,0.1944,0.1944,0.1956,0.1956,0.1955,0,0,0,0,0,0,0,0,0,0,0,0,0,0.1896,0.1885,0.1904,0.1918,0.192,0.1923,0.1923,0.1923,0.1943,0.1943,0.1944,0.1945,0.1956,0.1956,0.1955,0.1942,0,0,0.1955,0.1955,0,0,0,0,0,0,0,0,0.1895,0.1897,0.1916,0.1917,0.1919,0.1932,0.192,0.1929,0.1943,0.1933,0.1944,0.1945,0.1948,0.1948,0.1948,0.1943,0.1943,0.1955,0.1955,0.1955,0.1955,0,0,0,0,0,0,0,0.1895,0.1896,0.191,0.1916,0.1918,0.1923,0.1925,0.1922,0.1935,0.1934,0.1935,0.1939,0.1948,0.1948,0.1949,0.1943,0.1955,0.1955,0.1955,0.1955,0.1991,0.1992,0,0,0,0,0,0,0.1894,0.1895,0.191,0.1911,0.191,0.1923,0.1925,0.1926,0.1935,0.1938,0.1939,0.194,0.1948,0.1949,0.1949,0.1983,0.1955,0.1955,0.1955,0.199,0.1991,0.1992,0,0,0,0,0,0,0.1894,0.1895,0.1909,0.1905,0.1907,0.1923,0.1924,0.1926,0.1934,0.194,0.1942,0.1944,0.1949,0.195,0.1962,0.1982,0.1955,0.1955,0.1989,0.199,0.1992,0.2019,0,0,0,0,0,0,0.1893,0.1895,0.1897,0.1905,0.1907,0.1919,0.1923,0.1926,0.1935,0.1938,0.1945,0.1946,0.1949,0.1963,0.1962,0.1981,0.1954,0.1987,0.1989,0.1991,0.2017,0.2021,0.2025,0,0,0,0,0,0.1892,0.1894,0.1897,0.1899,0.1909,0.192,0.1921,0.1934,0.1935,0.1941,0.1951,0.1947,0.1975,0.1963,0.1962,0.1982,0.1986,0.1989,0.1991,0.2015,0.202,0.2025,0,0,0,0,0,0,0.1891,0.1897,0.19,0.1904,0.1915,0.1924,0.193,0.1934,0.1945,0.1949,0.1952,0.1954,0.1978,0.1973,0.196,0.2,0.1983,0.1985,0.2001,0.2006,0.201,0.2019,0.1954,0,0,0,0,0,0.189,0.1891,0.19,0.1906,0.191,0.1919,0.1924,0.1933,0.1943,0.1948,0.1954,0.1966,0.1985,0.199,0.2002,0.2012,0.2017,0.2028,0.2032,0.2035,0.2043,0.2073,0.208,0.2,0.2,0.2,0,0,0.1892,0.1895,0.1897,0.1905,0.1913,0.1927,0.1924,0.1935,0.1951,0.1946,0.1968,0.198,0.1992,0.2016,0.2026,0.2014,0.206,0.2038,0.2041,0.2047,0.2076,0.2084,0.2091,0.2002,0.2001,0.2001,0,0,0.1899,0.1898,0.1905,0.1913,0.1926,0.1933,0.1937,0.1949,0.1959,0.1977,0.1989,0.2012,0.2024,0.2046,0.2057,0.2088,0.2084,0.2092,0.2114,0.2143,0.215,0.2156,0.2164,0.2171,0.209,0.209,0.209,0,0.1906,0.1911,0.191,0.1922,0.1933,0.1937,0.1954,0.1964,0.1981,0.1994,0.199,0.2036,0.2043,0.2085,0.2102,0.2098,0.2106,0.2092,0.2148,0.2154,0.216,0.2167,0.2174,0.2092,0.2091,0.2091,0.2091,0,0.1919,0.1927,0.1933,0.1949,0.1961,0.1973,0.1989,0.2003,0.2012,0.2025,0.2064,0.2078,0.2106,0.2116,0.2119,0.2168,0.2157,0.2152,0.2133,0.217,0.2175,0.2182,0.2094,0.2093,0.2093,0.2092,0,0,0.1917,0.1939,0.1941,0.1952,0.1975,0.1983,0.2014,0.2041,0.2067,0.2081,0.2119,0.2151,0.2157,0.2171,0.2179,0.2204,0.2248,0.2196,0.2197,0.2201,0.2301,0.2269,0.2273,0.2253,0.2255,0.2256,0.2285,0,0.1929,0.1953,0.1965,0.199,0.2001,0.202,0.205,0.2076,0.21,0.2136,0.2156,0.2194,0.2177,0.2199,0.2221,0.2248,0.2269,0.224,0.2268,0.2269,0.2234,0.2281,0.209,0.2098,0.2291,0.2292,0.2293,0,0.193,0.1947,0.1974,0.2007,0.2016,0.2036,0.2081,0.2111,0.2162,0.2187,0.2222,0.2237,0.2279,0.2262,0.2309,0.2291,0.23,0.2313,0.2314,0.2282,0.2251,0.2095,0.2103,0.2304,0.2303,0.2302,0.2302,0,0.191,0.1947,0.1967,0.1978,0.2022,0.2042,0.207,0.2123,0.216,0.2223,0.2256,0.2295,0.2325,0.2344,0.2354,0.234,0.2404,0.2384,0.2362,0.2358,0.22,0.2181,0.2425,0.2425,0.2425,0.2425,0.2425,0,0.1906,0.1915,0.1958,0.1967,0.1999,0.2034,0.2079,0.212,0.2193,0.2235,0.2276,0.2316,0.2351,0.2381,0.238,0.239,0.2419,0.2379,0.2374,0.2203,0.2185,0.2367,0.236,0.2426,0.2426,0.2425,0.2425,0,0.1867,0.1899,0.1918,0.1969,0.1986,0.2006,0.2078,0.2111,0.2188,0.2248,0.2271,0.2349,0.2384,0.2404,0.2447,0.2423,0.2437,0.2432,0.2223,0.2193,0.2362,0.2356,0.2411,0.241,0.2409,0.2409,0.2409,0,0.1841,0.1851,0.1906,0.1922,0.1943,0.1982,0.201,0.2096,0.2141,0.2254,0.228,0.2351,0.2378,0.2427,0.2403,0.2398,0.2437,0.2222,0.2169,0.2377,0.2366,0.236,0.2355,0.1959,0.1955,0.1951,0.1949,0,0.179,0.1816,0.184,0.1877,0.1904,0.1937,0.1989,0.2031,0.2127,0.2174,0.2243,0.228,0.2336,0.2251,0.2263,0.2232,0.2207,0.2157,0.2431,0.2004,0.1956,0.1944,0.1952,0.1919,0.1922,0.1924,0.1926,0.1927,0.1742,0.1749,0.1787,0.1816,0.1848,0.1874,0.1872,0.1931,0.1978,0.2015,0.2123,0.2093,0.2125,0.2042,0.1985,0.1933,0.2091,0.1981,0.1988,0.2,0.1955,0.191,0.1854,0.1857,0.1859,0.1861,0.1863,0,0.1664,0.1692,0.172,0.1746,0.1741,0.1791,0.1835,0.1803,0.1798,0.1851,0.1872,0.1721,0.1681,0.1703,0.1592,0.1615,0.1571,0.1538,0.1453,0.1485,0.1513,0.1439,0.1204,0.1202,0.1199,0.1197,0,0,0.1625,0.162,0.1641,0.1617,0.1637,0.159,0.159,0.1562,0.1569,0.1515,0.1475,0.1577,0.1651,0.139,0.1378,0.1267,0.1357,0.1215,0.1748,0.1679,0.1704,0.1781,0.1706,0,0,0,0,0]},{"header":{"parameterUnit":"m.s-1","parameterCategory":2,"la1":30.2991,"la2":30.254,"lo1":-89.0895,"lo2":-89.0444,"dy":0.0017,"dx":0.0017,"nx":28,"ny":28,"refTime":"2025-09-08T03:00:00:Z","depth":"2","parameterNumber":3,"parameterNumberName":"V-component_of_CURRENTS"},"data":[0,0,0,0,0,0,0,0,0,0,0,0,0,0,0,0,0,0,0,0,0,0,0,0,0,0,0,0,0,0,0,0,0,0,0,0,0,0,0,0,0,0,0,0,0,0,0,0,0,0,0,0,0,0,0,0,0,0,-0.0003,-0.0003,0,-0.0052,-0.0052,-0.0053,-0.0105,-0.0105,-0.0106,-0.0107,-0.018,-0.0181,-0.0182,0,0,0,0,0,0,0,0,0,0,0,0,0,0.0008,0.0009,-0.0003,-0.0003,-0.0004,-0.0052,-0.0052,-0.0053,-0.0105,-0.0105,-0.0106,-0.0107,-0.0179,-0.0181,-0.0182,0,0,0,0,0,0,0,0,0,0,0,0,0,-0.0015,0.0009,-0.0003,-0.0034,-0.0038,-0.0051,-0.0052,-0.0053,-0.0104,-0.0105,-0.0106,-0.0107,-0.0179,-0.0181,-0.0183,-0.0176,0,0,-0.0189,-0.019,0,0,0,0,0,0,0,0,-0.0013,-0.0015,-0.0029,-0.0032,-0.0036,-0.0072,-0.0075,-0.0095,-0.0104,-0.008,-0.0107,-0.0108,-0.0145,-0.0149,-0.0158,-0.018,-0.0183,-0.0189,-0.019,-0.0191,-0.0192,0,0,0,0,0,0,0,-0.0012,-0.0014,-0.0023,-0.003,-0.0034,-0.0059,-0.0063,-0.0079,-0.0108,-0.0082,-0.0086,-0.0089,-0.0147,-0.0155,-0.016,-0.0184,-0.0189,-0.0191,-0.0192,-0.0193,-0.0229,-0.0229,0,0,0,0,0,0,-0.0001,-0.0012,-0.0022,-0.0024,-0.0026,-0.0058,-0.0063,-0.006,-0.0107,-0.0115,-0.0089,-0.0092,-0.0152,-0.0157,-0.0163,-0.0167,-0.0191,-0.0193,-0.0194,-0.023,-0.0229,-0.0229,0,0,0,0,0,0,0.0,-0.0001,-0.002,-0.0019,-0.0023,-0.0057,-0.0054,-0.0061,-0.0072,-0.0111,-0.012,-0.0093,-0.0153,-0.016,-0.0179,-0.017,-0.0194,-0.0196,-0.023,-0.023,-0.0229,-0.017,0,0,0,0,0,0,0.0001,0.0,0.0004,-0.0018,-0.0023,-0.0025,-0.0053,-0.0061,-0.0072,-0.0077,-0.0118,-0.0126,-0.0154,-0.0175,-0.0181,-0.0173,-0.0197,-0.023,-0.023,-0.0229,-0.0172,-0.0168,-0.0164,0,0,0,0,0,0.0001,0.0011,0.0005,0.0004,-0.0015,-0.0024,-0.0029,-0.0058,-0.0071,-0.0072,-0.0102,-0.0125,-0.0176,-0.0176,-0.0183,-0.0176,-0.0231,-0.023,-0.0229,-0.0174,-0.0169,-0.0164,0,0,0,0,0,0,0.0013,0.0006,-0.0001,0.0005,-0.0007,-0.0033,-0.0037,-0.0052,-0.0075,-0.0081,-0.0119,-0.0128,-0.0144,-0.0166,-0.0165,-0.0186,-0.0208,-0.0209,-0.0164,-0.0159,-0.0155,-0.014,-0.0199,0,0,0,0,0,0.0021,0.0028,0.0015,0.0019,0.0016,-0.0008,-0.0015,-0.0032,-0.0054,-0.0065,-0.0092,-0.0122,-0.0144,-0.0157,-0.0181,-0.0187,-0.0207,-0.0189,-0.0184,-0.018,-0.0174,-0.0196,-0.0193,-0.0227,-0.0227,-0.0227,0,0,0.0025,0.0023,0.0026,0.0022,0.0009,0.0013,-0.0015,-0.0022,-0.0021,-0.0068,-0.0077,-0.0107,-0.0143,-0.0155,-0.0164,-0.0174,-0.0181,-0.018,-0.0176,-0.0171,-0.0195,-0.0191,-0.0188,-0.0227,-0.0227,-0.0227,0,0,0.0041,0.0038,0.005,0.0047,0.0038,0.0027,0.0029,0.0009,-0.0003,-0.0012,-0.0047,-0.0069,-0.0103,-0.0125,-0.0141,-0.0125,-0.0159,-0.0137,-0.0101,-0.0122,-0.012,-0.0117,-0.0134,-0.0134,-0.0133,-0.0133,-0.0133,0,0.0044,0.0061,0.005,0.0061,0.0063,0.0038,0.0051,0.004,0.0016,0.0013,-0.001,-0.0055,-0.0087,-0.0097,-0.0097,-0.0114,-0.0132,-0.0116,-0.0116,-0.0114,-0.0113,-0.0131,-0.0131,-0.013,-0.013,-0.0131,-0.0131,0,0.0071,0.0082,0.0089,0.0099,0.0099,0.0105,0.0094,0.0092,0.0075,0.0061,0.0045,0.0002,-0.0025,-0.0039,-0.0065,-0.0069,-0.0086,-0.0108,-0.0125,-0.0105,-0.0126,-0.0127,-0.0126,-0.0127,-0.0128,-0.0128,0,0,0.0086,0.0104,0.0107,0.0122,0.0121,0.0127,0.0135,0.0137,0.0147,0.0115,0.0121,0.0077,0.0051,0.0031,-0.0003,-0.0023,-0.0031,-0.0057,-0.006,-0.0067,-0.0076,-0.0088,-0.0091,-0.0054,-0.0054,-0.0054,-0.0092,0,0.0109,0.0142,0.0144,0.0175,0.0193,0.0181,0.0192,0.019,0.018,0.018,0.0138,0.0124,0.0079,0.0066,0.0041,-0.0013,-0.0033,-0.0019,-0.01,-0.0102,-0.011,-0.0092,-0.0068,-0.01,-0.0094,-0.0094,-0.0094,0,0.0139,0.016,0.0193,0.0222,0.0228,0.024,0.026,0.0269,0.0261,0.0253,0.0233,0.0196,0.0166,0.0121,0.0048,0.0058,-0.0002,-0.0047,-0.005,-0.0082,-0.0117,-0.0121,-0.0104,-0.0097,-0.0097,-0.0097,-0.0097,0,0.0166,0.0197,0.0227,0.0236,0.026,0.0272,0.0283,0.0287,0.031,0.0299,0.0308,0.0259,0.0241,0.0162,0.0066,0.0055,-0.0016,-0.0045,-0.0111,-0.0113,-0.0119,-0.0121,-0.0099,-0.0099,-0.0099,-0.0098,-0.0098,0,0.0198,0.0226,0.0241,0.0262,0.0302,0.0302,0.0344,0.0349,0.0367,0.0403,0.0346,0.0362,0.0249,0.0192,0.0094,-0.0006,0.0003,-0.0098,-0.0122,-0.0098,-0.0097,-0.0119,-0.012,-0.01,-0.01,-0.0099,-0.0099,0,0.0229,0.0238,0.0279,0.0306,0.0318,0.0347,0.0394,0.0428,0.0431,0.0477,0.0476,0.0444,0.0369,0.0249,0.0128,0.0039,-0.0065,-0.0107,-0.0068,-0.0086,-0.0155,-0.0153,-0.0179,-0.018,-0.0181,-0.0181,-0.0181,0,0.0253,0.0273,0.0314,0.0343,0.0358,0.04,0.0436,0.0459,0.0508,0.0535,0.0568,0.0508,0.049,0.031,0.0134,-0.0035,-0.0066,-0.0125,-0.0146,-0.0142,-0.0162,-0.016,-0.0157,-0.0131,-0.013,-0.013,-0.013,0,0.0298,0.0303,0.0337,0.0395,0.0438,0.0493,0.0549,0.06,0.0635,0.0672,0.0718,0.0701,0.0529,0.0375,0.0135,0.002,-0.0097,-0.013,-0.0133,-0.0113,-0.0099,-0.0118,-0.0117,-0.013,-0.013,-0.013,-0.013,-0.013,0.0332,0.0359,0.0398,0.0457,0.0508,0.0583,0.064,0.0707,0.0788,0.0847,0.0831,0.0803,0.0622,0.0321,0.0123,-0.0098,-0.0096,-0.0168,-0.0166,-0.0166,-0.0153,-0.014,-0.0176,-0.0177,-0.0177,-0.0177,-0.0177,0,0.0381,0.0406,0.046,0.053,0.0597,0.0613,0.0716,0.0778,0.0877,0.091,0.0936,0.0776,0.0594,0.0368,0.0048,-0.0133,-0.0148,-0.0193,-0.0166,-0.0165,-0.0164,-0.0151,-0.0175,-0.0175,-0.0176,-0.0176,0,0,0.0407,0.0465,0.0488,0.0597,0.0645,0.074,0.0801,0.0886,0.0936,0.0979,0.0957,0.0907,0.065,0.0425,0.0178,-0.0003,-0.0046,-0.004,-0.0022,0.004,0.0043,-0.0129,-0.0104,0,0,0,0,0]}],[{"header":{"parameterUnit":"m.s-1","parameterCategory":2,"la1":30.2991,"la2":30.254,"lo1":-89.0895,"lo2":-89.0444,"dy":0.0017,"dx":0.0017,"nx":28,"ny":28,"refTime":"2025-09-08T03:00:00:Z","depth":"4","parameterNumber":2,"parameterNumberName":"U-component_of_CURRENTS"},"data":[0,0,0,0,0,0,0,0,0,0,0,0,0,0,0,0,0,0,0,0,0,0,0,0,0,0,0,0,0,0,0,0,0,0,0,0,0,0,0,0,0,0,0,0,0,0,0,0,0,0,0,0,0,0,0,0,0,0,0.111,0.1111,0,0.1148,0.1148,0.1148,0.1157,0.1157,0.1157,0.1157,0.121,0.1212,0.1213,0,0,0,0,0,0,0,0,0,0,0,0,0,0.1062,0.1063,0.111,0.1111,0.1112,0.1148,0.1148,0.1148,0.1158,0.1157,0.1157,0.1157,0.121,0.1212,0.1214,0,0,0,0,0,0,0,0,0,0,0,0,0,0.1088,0.1063,0.111,0.1122,0.1123,0.1148,0.1148,0.1148,0.1158,0.1157,0.1157,0.1157,0.1209,0.1212,0.1214,0.123,0,0,0.1221,0.1222,0,0,0,0,0,0,0,0,0.1087,0.109,0.112,0.1121,0.1123,0.1149,0.1151,0.1177,0.1158,0.1143,0.1157,0.1157,0.1193,0.1196,0.1201,0.1232,0.1235,0.1221,0.1222,0.1223,0.1224,0,0,0,0,0,0,0,0.1085,0.1088,0.1123,0.112,0.1122,0.1131,0.1134,0.1156,0.1167,0.1144,0.1145,0.1152,0.1194,0.1199,0.1202,0.1235,0.1221,0.1223,0.1224,0.1225,0.1329,0.133,0,0,0,0,0,0,0.1083,0.1086,0.1122,0.1125,0.1106,0.1132,0.1135,0.114,0.1166,0.1171,0.1152,0.1153,0.1195,0.12,0.1204,0.1269,0.1223,0.1225,0.1226,0.1327,0.1329,0.1331,0,0,0,0,0,0,0.1082,0.1086,0.1121,0.1108,0.1113,0.1133,0.1138,0.114,0.1168,0.1173,0.1177,0.118,0.1195,0.1201,0.1238,0.127,0.1226,0.1228,0.1326,0.1328,0.133,0.1372,0,0,0,0,0,0,0.108,0.1085,0.1103,0.1108,0.1114,0.1145,0.1138,0.1141,0.1172,0.1174,0.1198,0.1201,0.1195,0.1235,0.124,0.1272,0.123,0.1324,0.1327,0.1329,0.1368,0.1375,0.138,0,0,0,0,0,0.1079,0.1095,0.1104,0.1109,0.1133,0.1146,0.115,0.1162,0.1174,0.1187,0.1205,0.1201,0.1256,0.1238,0.1244,0.1277,0.1323,0.1326,0.1329,0.1366,0.1374,0.138,0,0,0,0,0,0,0.1081,0.1098,0.1107,0.1129,0.1143,0.1148,0.1171,0.118,0.1205,0.1218,0.1219,0.1224,0.1265,0.127,0.125,0.1315,0.129,0.1294,0.1316,0.1323,0.1329,0.1327,0.1232,0,0,0,0,0,0.1091,0.1112,0.1123,0.1144,0.1155,0.1171,0.1186,0.1194,0.1211,0.1223,0.1241,0.1263,0.128,0.13,0.1313,0.1356,0.1356,0.1382,0.1388,0.1393,0.1396,0.142,0.1428,0.1341,0.1341,0.1341,0,0,0.1096,0.1112,0.1123,0.1147,0.1164,0.118,0.118,0.1209,0.123,0.1226,0.1273,0.1285,0.1295,0.1332,0.1353,0.1344,0.142,0.1397,0.1401,0.1402,0.1424,0.1433,0.144,0.1343,0.1343,0.1342,0,0,0.1108,0.1134,0.1152,0.1168,0.12,0.1209,0.1224,0.1247,0.1269,0.1308,0.131,0.134,0.1377,0.1385,0.1393,0.1444,0.1446,0.1461,0.1498,0.1522,0.1529,0.1535,0.1552,0.1559,0.1471,0.1471,0.1471,0,0.1118,0.1137,0.116,0.1179,0.1196,0.1224,0.1241,0.1267,0.1302,0.1325,0.1329,0.1387,0.1396,0.1434,0.1452,0.1457,0.1473,0.1468,0.1529,0.1535,0.1541,0.1556,0.1564,0.1473,0.1473,0.1473,0.1472,0,0.1129,0.1156,0.117,0.1203,0.1225,0.1247,0.1279,0.1317,0.135,0.1371,0.1426,0.1442,0.1475,0.1489,0.1488,0.1541,0.154,0.1527,0.1507,0.1552,0.1566,0.1573,0.1477,0.1476,0.1475,0.1474,0,0,0.1118,0.1168,0.1175,0.1193,0.124,0.1254,0.1304,0.1345,0.1383,0.1429,0.1475,0.1512,0.1534,0.1545,0.1558,0.1585,0.1639,0.1586,0.1586,0.1597,0.1699,0.1594,0.1592,0.1644,0.1646,0.1647,0.1694,0,0.1121,0.1153,0.118,0.1216,0.1234,0.1278,0.1316,0.1363,0.1412,0.1468,0.1506,0.1553,0.1554,0.1584,0.1612,0.1635,0.166,0.1627,0.1659,0.166,0.1556,0.1597,0.1651,0.1699,0.1701,0.1702,0.1703,0,0.1118,0.1142,0.1174,0.1223,0.1236,0.1268,0.1337,0.1377,0.1458,0.1497,0.1558,0.1593,0.1656,0.1643,0.1707,0.1694,0.1704,0.1711,0.1713,0.1604,0.1568,0.1645,0.1715,0.1715,0.1714,0.1713,0.1712,0,0.1087,0.1137,0.1163,0.1179,0.1239,0.1274,0.1316,0.1392,0.1434,0.1532,0.1575,0.1645,0.1696,0.1725,0.1758,0.1745,0.1816,0.179,0.17,0.1693,0.1754,0.1747,0.1822,0.1822,0.1822,0.1822,0.1822,0,0.1066,0.1092,0.1158,0.1171,0.1214,0.1265,0.1327,0.138,0.1462,0.1512,0.1598,0.1645,0.1723,0.1774,0.1783,0.1769,0.1837,0.1711,0.1699,0.1772,0.1766,0.1759,0.1751,0.1824,0.1824,0.1823,0.1823,0,0.1026,0.1069,0.1105,0.1173,0.1203,0.1237,0.1328,0.1364,0.1455,0.1527,0.1564,0.1669,0.1732,0.1788,0.184,0.1789,0.1789,0.1762,0.185,0.1841,0.1644,0.1638,0.1659,0.1656,0.1653,0.1651,0.1649,0,0.1004,0.1019,0.1099,0.1123,0.1162,0.1226,0.1264,0.1356,0.1393,0.1525,0.1545,0.1651,0.171,0.1706,0.1764,0.1773,0.1747,0.1733,0.1671,0.1642,0.1628,0.1627,0.1625,0.1645,0.1644,0.1643,0.1642,0,0.0959,0.1,0.1027,0.1075,0.1124,0.1166,0.1233,0.1252,0.1354,0.1451,0.1497,0.1535,0.1602,0.164,0.1664,0.1662,0.1734,0.1703,0.1708,0.165,0.1624,0.1613,0.1614,0.1633,0.1634,0.1635,0.1636,0,0.0933,0.0939,0.098,0.1017,0.1068,0.1088,0.1134,0.1177,0.1226,0.1364,0.138,0.1491,0.1589,0.1583,0.1605,0.16,0.1565,0.1501,0.1515,0.1527,0.146,0.1406,0.1342,0,0,0,0,0,0.0901,0.0898,0.0916,0.0948,0.099,0.1027,0.1098,0.1143,0.1251,0.1248,0.1307,0.1362,0.1401,0.1458,0.1424,0.1537,0.1567,0.1489,0.15,0.1579,0.159,0.1523,0,0,0,0,0,0,0.0878,0.0894,0.0891,0.088,0.0894,0.0932,0.0978,0.1049,0.1051,0.1167,0.1198,0.1283,0.1343,0.1415,0.1404,0.1418,0.1394,0.1556,0.1552,0.1573,0.1583,0.1592,0.1526,0,0,0,0,0]},{"header":{"parameterUnit":"m.s-1","parameterCategory":2,"la1":30.2991,"la2":30.254,"lo1":-89.0895,"lo2":-89.0444,"dy":0.0017,"dx":0.0017,"nx":28,"ny":28,"refTime":"2025-09-08T03:00:00:Z","depth":"4","parameterNumber":3,"parameterNumberName":"V-component_of_CURRENTS"},"data":[0,0,0,0,0,0,0,0,0,0,0,0,0,0,0,0,0,0,0,0,0,0,0,0,0,0,0,0,0,0,0,0,0,0,0,0,0,0,0,0,0,0,0,0,0,0,0,0,0,0,0,0,0,0,0,0,0,0,0.0192,0.0192,0,0.0171,0.0171,0.017,0.0169,0.017,0.017,0.017,0.0132,0.013,0.0129,0,0,0,0,0,0,0,0,0,0,0,0,0,0.0194,0.0194,0.0192,0.0192,0.0192,0.0171,0.0171,0.017,0.0169,0.017,0.017,0.017,0.0132,0.013,0.0129,0,0,0,0,0,0,0,0,0,0,0,0,0,0.0184,0.0194,0.0192,0.0189,0.0189,0.0171,0.0171,0.017,0.0169,0.017,0.017,0.017,0.0133,0.0131,0.0129,0.0107,0,0,0.0123,0.0122,0,0,0,0,0,0,0,0,0.0185,0.0184,0.019,0.0189,0.0189,0.0174,0.0157,0.0149,0.0169,0.0176,0.017,0.0171,0.0144,0.0141,0.0135,0.0105,0.0104,0.0122,0.0121,0.012,0.012,0,0,0,0,0,0,0,0.0185,0.0185,0.0183,0.019,0.0189,0.0176,0.0176,0.0155,0.0157,0.0175,0.0175,0.0174,0.0144,0.0137,0.0135,0.0103,0.0122,0.0121,0.0119,0.0119,0.0072,0.0072,0,0,0,0,0,0,0.0191,0.0185,0.0184,0.0182,0.0189,0.0176,0.0175,0.0178,0.0157,0.0155,0.0174,0.0174,0.0141,0.0137,0.0133,0.013,0.012,0.0119,0.0117,0.0072,0.0072,0.0072,0,0,0,0,0,0,0.0191,0.0191,0.0184,0.0184,0.0182,0.0176,0.0178,0.0177,0.0175,0.0156,0.0154,0.0174,0.0141,0.0136,0.0122,0.0127,0.0118,0.0116,0.0072,0.0072,0.0072,0.0107,0,0,0,0,0,0,0.0191,0.0191,0.0194,0.0184,0.0183,0.018,0.0178,0.0176,0.0174,0.0174,0.0155,0.0152,0.0141,0.0126,0.0121,0.0124,0.0114,0.0072,0.0072,0.0072,0.0106,0.0108,0.011,0,0,0,0,0,0.0192,0.0195,0.0195,0.0194,0.0187,0.018,0.0177,0.0173,0.0173,0.0173,0.0163,0.0153,0.0121,0.0124,0.0118,0.0121,0.0072,0.0072,0.0072,0.0105,0.0108,0.011,0,0,0,0,0,0,0.0196,0.0195,0.0194,0.0197,0.0191,0.018,0.0179,0.0175,0.0165,0.0167,0.015,0.0146,0.0137,0.0121,0.0124,0.0107,0.0096,0.0095,0.0123,0.0125,0.0127,0.0138,0.0113,0,0,0,0,0,0.0198,0.0203,0.0196,0.0199,0.0197,0.0188,0.0184,0.0182,0.0172,0.0169,0.0156,0.0141,0.013,0.0122,0.0108,0.0094,0.0075,0.0093,0.0095,0.0097,0.0101,0.0075,0.0075,0.0072,0.0072,0.0072,0,0,0.0201,0.0201,0.0204,0.02,0.0195,0.0198,0.0187,0.0184,0.0189,0.0165,0.0164,0.0147,0.0128,0.0119,0.0114,0.0108,0.0087,0.0097,0.0099,0.0101,0.0075,0.0075,0.0075,0.0072,0.0072,0.0072,0,0,0.021,0.0209,0.0216,0.0215,0.0211,0.0205,0.0206,0.0196,0.0194,0.0187,0.0175,0.0162,0.014,0.0131,0.0122,0.0124,0.01,0.0118,0.0136,0.0111,0.0111,0.0111,0.0086,0.0084,0.0118,0.0118,0.0118,0,0.0214,0.0225,0.0216,0.0223,0.0228,0.0211,0.0223,0.0214,0.0202,0.0202,0.0192,0.0165,0.0147,0.0141,0.0144,0.013,0.011,0.013,0.0114,0.0114,0.0113,0.0088,0.0085,0.012,0.012,0.0119,0.0119,0,0.023,0.024,0.0243,0.0252,0.0253,0.0257,0.025,0.0247,0.0239,0.0232,0.0222,0.0194,0.018,0.017,0.0158,0.0147,0.0133,0.0121,0.0111,0.0116,0.0088,0.0085,0.0122,0.0122,0.0121,0.0121,0,0,0.0239,0.0253,0.0256,0.027,0.0271,0.0275,0.028,0.0281,0.0289,0.0265,0.0269,0.0242,0.0225,0.0214,0.0192,0.0168,0.0144,0.0145,0.0143,0.0126,0.0087,0.0081,0.0075,0.0129,0.0129,0.0129,0.007,0,0.0257,0.0282,0.0284,0.031,0.0324,0.0317,0.0326,0.0324,0.0316,0.0312,0.0279,0.0273,0.0242,0.0237,0.0207,0.0163,0.0136,0.0161,0.0081,0.0078,0.0076,0.0071,0.0127,0.0067,0.0066,0.0065,0.0065,0,0.0274,0.0292,0.0322,0.0349,0.0355,0.0368,0.0384,0.039,0.0378,0.0371,0.0352,0.0325,0.0291,0.0262,0.0184,0.0201,0.0149,0.0108,0.0104,0.0084,0.0064,0.006,0.0057,0.0058,0.0059,0.0059,0.006,0,0.0291,0.032,0.0348,0.0357,0.038,0.0395,0.0407,0.0408,0.0424,0.0409,0.0412,0.0364,0.0343,0.0271,0.0185,0.0184,0.0093,0.008,0.0023,0.0022,0.0031,0.0031,0.0023,0.0023,0.0023,0.0023,0.0024,0,0.031,0.0335,0.036,0.0377,0.0417,0.0423,0.046,0.0462,0.0471,0.049,0.0446,0.0441,0.0344,0.028,0.0197,0.0099,0.01,0.0026,0.0007,0.0046,0.0049,0.0028,0.0029,0.0021,0.0022,0.0022,0.0022,0,0.0325,0.0339,0.0377,0.0411,0.0427,0.0455,0.0502,0.0526,0.0529,0.0549,0.0547,0.0497,0.0412,0.0309,0.019,0.0121,0.0024,-0.0012,0.004,0.0024,-0.0034,-0.0031,-0.008,-0.0081,-0.0081,-0.0082,-0.0082,0,0.0337,0.0355,0.0405,0.0433,0.0453,0.0497,0.053,0.0553,0.0579,0.0581,0.059,0.0522,0.0472,0.0301,0.0189,0.0029,0.0005,-0.0045,-0.0043,-0.0031,-0.0045,-0.004,-0.0036,-0.0083,-0.0083,-0.0084,-0.0084,0,0.036,0.0374,0.0407,0.0463,0.0505,0.0554,0.06,0.0623,0.0644,0.0648,0.0621,0.0534,0.0438,0.0303,0.0179,0.0064,-0.0012,-0.0052,-0.0051,-0.005,-0.0036,-0.0048,-0.0043,-0.0086,-0.0086,-0.0085,-0.0085,0,0.0379,0.0402,0.0442,0.0492,0.0545,0.059,0.0616,0.0641,0.0665,0.0662,0.065,0.0546,0.0488,0.032,0.0206,0.0093,0.0061,0.0023,0.0019,0.002,0.0064,0.0098,0.0073,0,0,0,0,0,0.0395,0.0421,0.0468,0.0521,0.0572,0.0603,0.0654,0.0672,0.069,0.0674,0.0664,0.0572,0.0405,0.0336,0.022,0.0188,0.0038,0.0048,-0.0008,-0.0098,-0.0095,-0.0061,0,0,0,0,0,0,0.0405,0.0449,0.0468,0.0533,0.057,0.0629,0.0661,0.0674,0.0666,0.0664,0.0578,0.054,0.0378,0.0469,0.0217,0.0183,0.0131,-0.0027,-0.003,-0.0099,-0.0097,-0.0095,-0.0059,0,0,0,0,0]}]]